| time (UTC) | temp C | wind direction | speed KPH | gust KPH | rain 1hr cm | rain 24hr cm | rain mn cm | humidity % | barometer mb |
| 20260508014549 | 16 | 119 | 0.0 | 0.0 | 0.00 | 0.00 | 0.00 | 41 | 1014.8 |
| 20260508014046 | 16 | 119 | 0.0 | 0.0 | 0.00 | 0.00 | 0.00 | 39 | 1014.8 |
| 20260508013548 | 16 | 117 | 0.0 | 3.2 | 0.00 | 0.00 | 0.00 | 37 | 1014.8 |
| 20260508013047 | 17 | 117 | 0.0 | 3.2 | 0.00 | 0.00 | 0.00 | 36 | 1014.8 |
| 20260508012547 | 17 | 116 | 0.0 | 3.2 | 0.00 | 0.00 | 0.00 | 35 | 1014.7 |
| 20260508012044 | 17 | 116 | 0.0 | 0.0 | 0.00 | 0.00 | 0.00 | 33 | 1014.7 |
| 20260508011543 | 17 | 116 | 0.0 | 4.8 | 0.00 | 0.00 | 0.00 | 32 | 1014.6 |
| 20260508011042 | 17 | 116 | 0.0 | 4.8 | 0.00 | 0.00 | 0.00 | 32 | 1014.6 |
| 20260508010542 | 17 | 194 | 0.0 | 3.2 | 0.00 | 0.00 | 0.00 | 33 | 1014.5 |
| 20260508010040 | 18 | 194 | 1.6 | 4.8 | 0.00 | 0.00 | 0.00 | 31 | 1014.5 |
| 20260508005538 | 18 | 194 | 1.6 | 4.8 | 0.00 | 0.00 | 0.00 | 32 | 1014.6 |
| 20260508005038 | 18 | 197 | 0.0 | 3.2 | 0.00 | 0.00 | 0.00 | 31 | 1014.5 |
| 20260508004540 | 18 | 198 | 0.0 | 6.4 | 0.00 | 0.00 | 0.00 | 31 | 1014.5 |
| 20260508004038 | 18 | 198 | 1.6 | 11.3 | 0.00 | 0.00 | 0.00 | 30 | 1014.5 |
| 20260508003536 | 18 | 185 | 1.6 | 11.3 | 0.00 | 0.00 | 0.00 | 29 | 1014.5 |
| 20260508003306 | 18 | 153 | 1.6 | 6.4 | 0.00 | 0.00 | 0.00 | 29 | 1014.3 |
| 20260508002531 | 18 | 194 | 1.6 | 4.8 | 0.00 | 0.00 | 0.00 | 31 | 1014.5 |
| 20260508002030 | 18 | 198 | 1.6 | 8.0 | 0.00 | 0.00 | 0.00 | 28 | 1014.5 |
| 20260508001532 | 18 | 199 | 1.6 | 11.3 | 0.00 | 0.00 | 0.00 | 29 | 1014.5 |
| 20260508001030 | 19 | 206 | 1.6 | 11.3 | 0.00 | 0.00 | 0.00 | 27 | 1014.3 |
| 20260508000530 | 19 | 142 | 0.0 | 3.2 | 0.00 | 0.00 | 0.00 | 30 | 1014.5 |
| 20260508000517 | 19 | 142 | 0.0 | 1.6 | 0.00 | 0.00 | 0.00 | 31 | 1014.5 |
| 20260507235530 | 19 | 142 | 1.6 | 4.8 | 0.00 | 0.00 | 0.00 | 29 | 1014.5 |
| 20260507235032 | 19 | 142 | 1.6 | 6.4 | 0.00 | 0.00 | 0.00 | 28 | 1014.5 |
| 20260507234530 | 19 | 139 | 1.6 | 6.4 | 0.00 | 0.00 | 0.00 | 27 | 1014.5 |
| 20260507234028 | 18 | 177 | 1.6 | 4.8 | 0.00 | 0.00 | 0.00 | 28 | 1014.5 |
| 20260507233756 | 18 | 178 | 1.6 | 6.4 | 0.00 | 0.00 | 0.00 | 28 | 1014.3 |
| 20260507233028 | 18 | 186 | 3.2 | 11.3 | 0.00 | 0.00 | 0.00 | 27 | 1014.5 |
| 20260507232528 | 18 | 178 | 4.8 | 11.3 | 0.00 | 0.00 | 0.00 | 28 | 1014.5 |
| 20260507232028 | 19 | 234 | 4.8 | 14.5 | 0.00 | 0.00 | 0.00 | 27 | 1014.5 |
| 20260507231529 | 19 | 184 | 4.8 | 14.5 | 0.00 | 0.00 | 0.00 | 26 | 1014.6 |
| 20260507231256 | 20 | 109 | 3.2 | 12.9 | 0.00 | 0.00 | 0.00 | 27 | 1014.6 |
| 20260507230530 | 21 | 71 | 0.0 | 6.4 | 0.00 | 0.00 | 0.00 | 27 | 1014.7 |
| 20260507230025 | 20 | 68 | 1.6 | 6.4 | 0.00 | 0.00 | 0.00 | 29 | 1014.6 |
| 20260507225517 | 20 | 89 | 1.6 | 6.4 | 0.00 | 0.00 | 0.00 | 27 | 1014.6 |
| 20260507225011 | 20 | 180 | 1.6 | 6.4 | 0.00 | 0.00 | 0.00 | 30 | 1014.5 |
| 20260507224507 | 19 | 169 | 3.2 | 8.0 | 0.00 | 0.00 | 0.00 | 29 | 1014.6 |
| 20260507223959 | 18 | 166 | 3.2 | 9.7 | 0.00 | 0.00 | 0.00 | 31 | 1014.6 |
| 20260507223453 | 18 | 163 | 1.6 | 9.7 | 0.00 | 0.00 | 0.00 | 27 | 1014.7 |
| 20260507222949 | 18 | 200 | 3.2 | 9.7 | 0.00 | 0.00 | 0.00 | 28 | 1014.7 |
| 20260507222448 | 18 | 199 | 3.2 | 9.7 | 0.00 | 0.00 | 0.00 | 26 | 1014.8 |
| 20260507222210 | 18 | 180 | 3.2 | 12.9 | 0.00 | 0.00 | 0.00 | 28 | 1014.8 |
| 20260507221446 | 19 | 205 | 3.2 | 12.9 | 0.00 | 0.00 | 0.00 | 26 | 1014.8 |
| 20260507220944 | 19 | 215 | 4.8 | 11.3 | 0.00 | 0.00 | 0.00 | 25 | 1014.8 |
| 20260507220709 | 18 | 98 | 6.4 | 16.1 | 0.00 | 0.00 | 0.00 | 29 | 1014.8 |
| 20260507215945 | 18 | 192 | 4.8 | 16.1 | 0.00 | 0.00 | 0.00 | 27 | 1014.8 |
| 20260507215445 | 18 | 190 | 3.2 | 11.3 | 0.00 | 0.00 | 0.00 | 26 | 1014.9 |
| 20260507214946 | 18 | 190 | 3.2 | 11.3 | 0.00 | 0.00 | 0.00 | 26 | 1015.1 |
| 20260507214446 | 18 | 186 | 1.6 | 9.7 | 0.00 | 0.00 | 0.00 | 25 | 1015.1 |
| 20260507213940 | 19 | 171 | 1.6 | 9.7 | 0.00 | 0.00 | 0.00 | 25 | 1015.1 |
| 20260507213704 | 19 | 185 | 1.6 | 8.0 | 0.00 | 0.00 | 0.00 | 24 | 1015.2 |
| 20260507212942 | 19 | 185 | 3.2 | 8.0 | 0.00 | 0.00 | 0.00 | 26 | 1015.1 |
| 20260507212440 | 20 | 198 | 3.2 | 9.7 | 0.00 | 0.00 | 0.00 | 25 | 1015.1 |
| 20260507211941 | 20 | 211 | 1.6 | 9.7 | 0.00 | 0.00 | 0.00 | 23 | 1015.2 |
| 20260507211441 | 20 | 70 | 0.0 | 3.2 | 0.00 | 0.00 | 0.00 | 25 | 1015.4 |
| 20260507210941 | 20 | 59 | 0.0 | 1.6 | 0.00 | 0.00 | 0.00 | 25 | 1015.4 |
| 20260507210439 | 20 | 59 | 1.6 | 6.4 | 0.00 | 0.00 | 0.00 | 26 | 1015.4 |
| 20260507205942 | 20 | 59 | 1.6 | 6.4 | 0.00 | 0.00 | 0.00 | 27 | 1015.5 |
| 20260507205437 | 21 | 128 | 0.0 | 3.2 | 0.00 | 0.00 | 0.00 | 27 | 1015.7 |
| 20260507204938 | 21 | 128 | 1.6 | 4.8 | 0.00 | 0.00 | 0.00 | 25 | 1015.8 |
| 20260507204437 | 22 | 128 | 1.6 | 4.8 | 0.00 | 0.00 | 0.00 | 24 | 1015.8 |
| 20260507203938 | 22 | 92 | 1.6 | 4.8 | 0.00 | 0.00 | 0.00 | 25 | 1015.7 |
| 20260507203434 | 22 | 176 | 1.6 | 8.0 | 0.00 | 0.00 | 0.00 | 26 | 1015.9 |
| 20260507202932 | 22 | 244 | 3.2 | 9.7 | 0.00 | 0.00 | 0.00 | 25 | 1016.0 |
| 20260507202431 | 22 | 119 | 1.6 | 9.7 | 0.00 | 0.03 | 0.00 | 25 | 1016.1 |
| 20260507201932 | 21 | 139 | 1.6 | 6.4 | 0.00 | 0.03 | 0.00 | 25 | 1016.0 |
| 20260507201431 | 21 | 246 | 3.2 | 6.4 | 0.00 | 0.03 | 0.00 | 27 | 1016.1 |
| 20260507200931 | 21 | 42 | 3.2 | 11.3 | 0.00 | 0.03 | 0.00 | 23 | 1016.3 |
| 20260507200431 | 21 | 223 | 3.2 | 11.3 | 0.00 | 0.03 | 0.00 | 23 | 1016.4 |
| 20260507195932 | 21 | 186 | 3.2 | 8.0 | 0.00 | 0.03 | 0.00 | 23 | 1016.5 |
| 20260507195431 | 22 | 157 | 1.6 | 9.7 | 0.00 | 0.03 | 0.00 | 24 | 1016.4 |
| 20260507194925 | 21 | 230 | 3.2 | 11.3 | 0.00 | 0.03 | 0.00 | 27 | 1016.5 |
| 20260507194426 | 21 | 202 | 3.2 | 11.3 | 0.00 | 0.03 | 0.00 | 26 | 1016.5 |
| 20260507193926 | 21 | 200 | 3.2 | 11.3 | 0.00 | 0.03 | 0.00 | 26 | 1016.6 |
| 20260507193427 | 20 | 125 | 3.2 | 4.8 | 0.00 | 0.03 | 0.00 | 24 | 1016.7 |
| 20260507193141 | 20 | 250 | 3.2 | 9.7 | 0.00 | 0.03 | 0.00 | 27 | 1016.9 |
| 20260507192421 | 20 | 190 | 3.2 | 9.7 | 0.00 | 0.03 | 0.00 | 23 | 1016.9 |
| 20260507191923 | 20 | 211 | 3.2 | 8.0 | 0.00 | 0.05 | 0.00 | 21 | 1016.9 |
| 20260507191420 | 20 | 174 | 1.6 | 6.4 | 0.00 | 0.05 | 0.00 | 23 | 1016.9 |
| 20260507190922 | 20 | 180 | 3.2 | 14.5 | 0.00 | 0.08 | 0.00 | 26 | 1017.0 |
| 20260507190420 | 20 | 97 | 3.2 | 14.5 | 0.00 | 0.08 | 0.00 | 27 | 1017.0 |
| 20260507185921 | 20 | 195 | 3.2 | 6.4 | 0.00 | 0.10 | 0.00 | 25 | 1017.1 |
| 20260507185420 | 20 | 113 | 3.2 | 11.3 | 0.00 | 0.13 | 0.00 | 28 | 1017.2 |
| 20260507184921 | 20 | 84 | 3.2 | 11.3 | 0.00 | 0.13 | 0.00 | 24 | 1017.2 |
| 20260507184641 | 19 | 105 | 3.2 | 14.5 | 0.00 | 0.15 | 0.00 | 31 | 1017.2 |
| 20260507183917 | 19 | 126 | 4.8 | 14.5 | 0.00 | 0.15 | 0.00 | 26 | 1017.2 |
| 20260507183420 | 19 | 109 | 3.2 | 9.7 | 0.00 | 0.18 | 0.00 | 22 | 1017.2 |
| 20260507182917 | 19 | 131 | 1.6 | 8.0 | 0.00 | 0.20 | 0.00 | 27 | 1017.2 |
| 20260507182418 | 19 | 138 | 3.2 | 8.0 | 0.00 | 0.23 | 0.00 | 23 | 1017.2 |
| 20260507181912 | 19 | 144 | 3.2 | 12.9 | 0.00 | 0.23 | 0.00 | 22 | 1017.2 |
| 20260507181632 | 19 | 142 | 3.2 | 12.9 | 0.00 | 0.25 | 0.00 | 22 | 1017.3 |
| 20260507180900 | 19 | 115 | 3.2 | 11.3 | 0.00 | 0.25 | 0.00 | 24 | 1017.5 |
| 20260507180624 | 18 | 140 | 3.2 | 8.0 | 0.00 | 0.28 | 0.00 | 26 | 1017.6 |
| 20260507175848 | 18 | 182 | 1.6 | 8.0 | 0.00 | 0.28 | 0.00 | 22 | 1017.7 |
| 20260507175342 | 17 | 139 | 1.6 | 6.4 | 0.00 | 0.30 | 0.00 | 28 | 1017.8 |
| 20260507174836 | 17 | 138 | 3.2 | 12.9 | 0.00 | 0.30 | 0.00 | 22 | 1017.9 |
| 20260507174330 | 17 | 190 | 4.8 | 12.9 | 0.00 | 0.30 | 0.00 | 24 | 1017.9 |
| 20260507173824 | 17 | 200 | 4.8 | 14.5 | 0.00 | 0.33 | 0.00 | 25 | 1017.9 |
| 20260507173318 | 17 | 198 | 3.2 | 14.5 | 0.00 | 0.33 | 0.00 | 24 | 1018.1 |
| 20260507172812 | 17 | 202 | 1.6 | 8.0 | 0.00 | 0.33 | 0.00 | 26 | 1018.1 |
| 20260507172527 | 17 | 192 | 3.2 | 8.0 | 0.00 | 0.33 | 0.00 | 23 | 1018.2 |
| 20260507171759 | 17 | 189 | 3.2 | 9.7 | 0.00 | 0.33 | 0.00 | 26 | 1018.3 |
| 20260507171254 | 16 | 204 | 3.2 | 9.7 | 0.00 | 0.33 | 0.00 | 24 | 1018.3 |
| 20260507170748 | 17 | 196 | 3.2 | 9.7 | 0.00 | 0.36 | 0.00 | 22 | 1018.5 |
| 20260507170241 | 17 | 221 | 3.2 | 9.7 | 0.00 | 0.36 | 0.00 | 23 | 1018.5 |
| 20260507165943 | 16 | 242 | 3.2 | 11.3 | 0.00 | 0.36 | 0.00 | 25 | 1018.5 |
| 20260507165826 | 16 | 244 | 3.2 | 6.4 | 0.00 | 0.36 | 0.00 | 28 | 1018.5 |
| 20260507164724 | 16 | 194 | 3.2 | 11.3 | 0.00 | 0.36 | 0.00 | 25 | 1018.7 |
| 20260507164218 | 16 | 78 | 1.6 | 6.4 | 0.00 | 0.36 | 0.00 | 26 | 1018.7 |
| 20260507163712 | 16 | 132 | 1.6 | 4.8 | 0.00 | 0.36 | 0.00 | 24 | 1018.8 |
| 20260507163432 | 16 | 86 | 1.6 | 4.8 | 0.00 | 0.38 | 0.00 | 26 | 1018.7 |
| 20260507162701 | 16 | 92 | 1.6 | 4.8 | 0.00 | 0.38 | 0.00 | 24 | 1018.8 |
| 20260507162154 | 16 | 79 | 1.6 | 6.4 | 0.00 | 0.38 | 0.00 | 27 | 1018.8 |
| 20260507161647 | 16 | 63 | 1.6 | 6.4 | 0.00 | 0.38 | 0.00 | 31 | 1018.8 |
| 20260507161141 | 16 | 130 | 1.6 | 6.4 | 0.00 | 0.41 | 0.00 | 32 | 1018.8 |
| 20260507160636 | 16 | 123 | 1.6 | 4.8 | 0.00 | 0.41 | 0.00 | 35 | 1018.8 |
| 20260507160129 | 15 | 126 | 1.6 | 4.8 | 0.00 | 0.41 | 0.00 | 34 | 1018.8 |
| 20260507155624 | 15 | 178 | 1.6 | 4.8 | 0.00 | 0.41 | 0.00 | 29 | 1018.9 |
| 20260507155118 | 15 | 196 | 1.6 | 3.2 | 0.00 | 0.41 | 0.00 | 28 | 1018.9 |
| 20260507154612 | 15 | 196 | 1.6 | 4.8 | 0.00 | 0.41 | 0.00 | 27 | 1018.9 |
| 20260507154105 | 14 | 248 | 1.6 | 4.8 | 0.00 | 0.43 | 0.00 | 32 | 1018.9 |
| 20260507153559 | 13 | 249 | 0.0 | 4.8 | 0.00 | 0.43 | 0.00 | 34 | 1018.9 |
| 20260507153055 | 13 | 250 | 0.0 | 4.8 | 0.00 | 0.43 | 0.00 | 35 | 1018.9 |
| 20260507152548 | 13 | 253 | 1.6 | 6.4 | 0.00 | 0.43 | 0.00 | 34 | 1019.0 |
| 20260507152306 | 13 | 252 | 1.6 | 6.4 | 0.00 | 0.43 | 0.00 | 33 | 1019.0 |
| 20260507151536 | 13 | 52 | 0.0 | 4.8 | 0.00 | 0.43 | 0.00 | 37 | 1019.0 |
| 20260507151030 | 12 | 53 | 0.0 | 3.2 | 0.00 | 0.43 | 0.00 | 45 | 1019.0 |
| 20260507150525 | 12 | 36 | 0.0 | 3.2 | 0.00 | 0.43 | 0.00 | 45 | 1019.0 |
| 20260507150018 | 12 | 305 | 0.0 | 4.8 | 0.00 | 0.43 | 0.00 | 47 | 1019.0 |
| 20260507145512 | 11 | 306 | 0.0 | 4.8 | 0.00 | 0.43 | 0.00 | 46 | 1018.9 |
| 20260507145006 | 11 | 181 | 1.6 | 4.8 | 0.00 | 0.43 | 0.00 | 49 | 1019.1 |
| 20260507144500 | 11 | 181 | 1.6 | 4.8 | 0.00 | 0.43 | 0.00 | 47 | 1019.0 |
| 20260507143954 | 10 | 200 | 1.6 | 4.8 | 0.00 | 0.43 | 0.00 | 49 | 1019.1 |
| 20260507143447 | 10 | 205 | 0.0 | 4.8 | 0.00 | 0.43 | 0.00 | 50 | 1019.0 |
| 20260507142942 | 9 | 204 | 0.0 | 4.8 | 0.00 | 0.43 | 0.00 | 55 | 1018.9 |
| 20260507142436 | 8 | 204 | 0.0 | 4.8 | 0.00 | 0.43 | 0.00 | 56 | 1018.9 |
| 20260507141931 | 8 | 208 | 0.0 | 3.2 | 0.00 | 0.43 | 0.00 | 57 | 1018.9 |
| 20260507141431 | 7 | 209 | 0.0 | 1.6 | 0.00 | 0.43 | 0.00 | 61 | 1019.0 |
| 20260507140930 | 7 | 209 | 0.0 | 0.0 | 0.00 | 0.43 | 0.00 | 62 | 1019.0 |
| 20260507140427 | 7 | 208 | 0.0 | 0.0 | 0.00 | 0.43 | 0.00 | 66 | 1019.1 |
| 20260507140152 | 6 | 208 | 0.0 | 0.0 | 0.00 | 0.43 | 0.00 | 70 | 1019.1 |
| 20260507135427 | 6 | 208 | 0.0 | 0.0 | 0.00 | 0.43 | 0.00 | 75 | 1019.3 |
| 20260507134926 | 6 | 208 | 0.0 | 0.0 | 0.00 | 0.43 | 0.00 | 76 | 1019.3 |
| 20260507134425 | 5 | 208 | 0.0 | 0.0 | 0.00 | 0.43 | 0.00 | 78 | 1019.1 |
| 20260507133921 | 5 | 208 | 0.0 | 0.0 | 0.00 | 0.43 | 0.00 | 79 | 1019.0 |
| 20260507133422 | 4 | 208 | 0.0 | 1.6 | 0.00 | 0.43 | 0.00 | 84 | 1019.0 |
| 20260507132922 | 3 | 208 | 0.0 | 1.6 | 0.00 | 0.43 | 0.00 | 85 | 1019.0 |
| 20260507132422 | 2 | 208 | 0.0 | 1.6 | 0.00 | 0.43 | 0.00 | 86 | 1019.0 |
| 20260507131920 | 2 | 208 | 0.0 | 3.2 | 0.00 | 0.43 | 0.00 | 87 | 1019.0 |
| 20260507131418 | 1 | 208 | 0.0 | 3.2 | 0.00 | 0.43 | 0.00 | 88 | 1018.9 |
| 20260507131134 | 1 | 207 | 0.0 | 1.6 | 0.00 | 0.43 | 0.00 | 89 | 1018.9 |
| 20260507130419 | 1 | 206 | 0.0 | 1.6 | 0.00 | 0.43 | 0.00 | 90 | 1019.0 |
| 20260507125913 | 0 | 207 | 0.0 | 1.6 | 0.00 | 0.43 | 0.00 | 90 | 1018.9 |
| 20260507125415 | 0 | 207 | 0.0 | 1.6 | 0.00 | 0.43 | 0.00 | 90 | 1019.0 |
| 20260507125135 | 0 | 207 | 0.0 | 1.6 | 0.00 | 0.43 | 0.00 | 91 | 1018.9 |
| 20260507124414 | 0 | 207 | 0.0 | 1.6 | 0.00 | 0.43 | 0.00 | 90 | 1018.9 |
| 20260507124138 | -1 | 207 | 0.0 | 1.6 | 0.00 | 0.43 | 0.00 | 90 | 1018.9 |
| 20260507123413 | -1 | 207 | 0.0 | 3.2 | 0.00 | 0.43 | 0.00 | 90 | 1018.9 |
| 20260507122912 | -1 | 207 | 0.0 | 3.2 | 0.00 | 0.43 | 0.00 | 91 | 1018.9 |
| 20260507122645 | -1 | 161 | 0.0 | 0.0 | 0.00 | 0.43 | 0.00 | 91 | 1018.9 |
| 20260507121915 | -1 | 161 | 0.0 | 0.0 | 0.00 | 0.43 | 0.00 | 90 | 1018.9 |
| 20260507121630 | -1 | 161 | 0.0 | 0.0 | 0.00 | 0.43 | 0.00 | 90 | 1018.8 |
| 20260507120910 | -1 | 161 | 0.0 | 0.0 | 0.00 | 0.43 | 0.00 | 90 | 1018.7 |
| 20260507120409 | -1 | 161 | 0.0 | 1.6 | 0.00 | 0.43 | 0.00 | 90 | 1018.5 |
| 20260507115910 | -1 | 161 | 0.0 | 1.6 | 0.00 | 0.43 | 0.00 | 90 | 1018.7 |
| 20260507115409 | -1 | 161 | 0.0 | 1.6 | 0.00 | 0.43 | 0.00 | 90 | 1018.8 |
| 20260507114912 | -1 | 161 | 0.0 | 1.6 | 0.00 | 0.43 | 0.00 | 90 | 1018.8 |
| 20260507114413 | -1 | 161 | 0.0 | 1.6 | 0.00 | 0.43 | 0.00 | 90 | 1018.8 |
| 20260507113911 | -1 | 161 | 0.0 | 1.6 | 0.00 | 0.43 | 0.00 | 91 | 1018.7 |
| 20260507113411 | -1 | 161 | 0.0 | 1.6 | 0.00 | 0.43 | 0.00 | 91 | 1018.7 |
| 20260507112905 | -1 | 161 | 0.0 | 1.6 | 0.00 | 0.43 | 0.00 | 92 | 1018.9 |
| 20260507112404 | -1 | 161 | 0.0 | 1.6 | 0.00 | 0.43 | 0.00 | 92 | 1018.9 |
| 20260507111905 | -1 | 161 | 0.0 | 1.6 | 0.00 | 0.43 | 0.00 | 92 | 1018.9 |
| 20260507111403 | -1 | 161 | 0.0 | 0.0 | 0.00 | 0.43 | 0.00 | 92 | 1018.9 |
| 20260507111131 | -1 | 161 | 0.0 | 1.6 | 0.00 | 0.43 | 0.00 | 92 | 1018.8 |
| 20260507110404 | -1 | 161 | 0.0 | 1.6 | 0.00 | 0.43 | 0.00 | 93 | 1018.8 |
| 20260507105904 | -2 | 161 | 0.0 | 1.6 | 0.00 | 0.43 | 0.00 | 93 | 1018.9 |
| 20260507105403 | -2 | 161 | 0.0 | 0.0 | 0.00 | 0.43 | 0.00 | 93 | 1018.8 |
| 20260507104902 | -2 | 161 | 0.0 | 1.6 | 0.00 | 0.43 | 0.00 | 93 | 1018.9 |
| 20260507104400 | -2 | 161 | 0.0 | 1.6 | 0.00 | 0.43 | 0.00 | 93 | 1018.9 |
| 20260507103859 | -2 | 161 | 0.0 | 1.6 | 0.00 | 0.43 | 0.00 | 93 | 1019.0 |
| 20260507103356 | -2 | 161 | 0.0 | 0.0 | 0.00 | 0.43 | 0.00 | 93 | 1019.0 |
| 20260507102854 | -2 | 161 | 0.0 | 1.6 | 0.00 | 0.43 | 0.00 | 93 | 1019.1 |
| 20260507102354 | -2 | 161 | 0.0 | 1.6 | 0.00 | 0.43 | 0.00 | 93 | 1019.1 |
| 20260507101853 | -2 | 161 | 0.0 | 1.6 | 0.00 | 0.43 | 0.00 | 94 | 1019.3 |
| 20260507101352 | -2 | 161 | 0.0 | 1.6 | 0.00 | 0.43 | 0.00 | 93 | 1019.3 |
| 20260507100849 | -2 | 161 | 0.0 | 1.6 | 0.00 | 0.43 | 0.00 | 93 | 1019.3 |
| 20260507100347 | -2 | 161 | 0.0 | 1.6 | 0.00 | 0.43 | 0.00 | 94 | 1019.3 |
| 20260507095847 | -2 | 161 | 0.0 | 1.6 | 0.00 | 0.43 | 0.00 | 94 | 1019.3 |
| 20260507095346 | -2 | 161 | 0.0 | 1.6 | 0.00 | 0.43 | 0.00 | 94 | 1019.3 |
| 20260507094838 | -2 | 161 | 0.0 | 3.2 | 0.00 | 0.43 | 0.00 | 94 | 1019.3 |
| 20260507094332 | -2 | 161 | 0.0 | 3.2 | 0.00 | 0.43 | 0.00 | 94 | 1019.4 |
| 20260507093825 | -2 | 161 | 0.0 | 0.0 | 0.00 | 0.43 | 0.00 | 94 | 1019.4 |
| 20260507093320 | -2 | 161 | 0.0 | 0.0 | 0.00 | 0.43 | 0.00 | 94 | 1019.4 |
| 20260507092813 | -2 | 161 | 0.0 | 1.6 | 0.00 | 0.43 | 0.00 | 94 | 1019.4 |
| 20260507092307 | -2 | 161 | 0.0 | 1.6 | 0.00 | 0.43 | 0.00 | 94 | 1019.5 |
| 20260507091804 | -2 | 161 | 0.0 | 1.6 | 0.00 | 0.43 | 0.00 | 95 | 1019.6 |
| 20260507091305 | -2 | 161 | 0.0 | 1.6 | 0.00 | 0.43 | 0.00 | 94 | 1019.6 |
| 20260507090804 | -2 | 161 | 0.0 | 1.6 | 0.00 | 0.43 | 0.00 | 94 | 1019.7 |
| 20260507090301 | -2 | 161 | 0.0 | 1.6 | 0.00 | 0.43 | 0.00 | 94 | 1019.6 |
| 20260507085800 | -2 | 161 | 0.0 | 1.6 | 0.00 | 0.43 | 0.00 | 94 | 1019.6 |
| 20260507085511 | -2 | 161 | 0.0 | 1.6 | 0.00 | 0.43 | 0.00 | 95 | 1019.6 |
| 20260507085004 | -2 | 161 | 0.0 | 1.6 | 0.00 | 0.43 | 0.00 | 94 | 1019.6 |
| 20260507084234 | -2 | 161 | 0.0 | 1.6 | 0.00 | 0.43 | 0.00 | 94 | 1019.7 |
| 20260507083728 | -2 | 161 | 0.0 | 1.6 | 0.00 | 0.43 | 0.00 | 94 | 1019.9 |
| 20260507083221 | -2 | 161 | 0.0 | 1.6 | 0.00 | 0.43 | 0.00 | 95 | 1019.9 |
| 20260507082715 | -2 | 161 | 0.0 | 0.0 | 0.00 | 0.43 | 0.00 | 95 | 1019.9 |
| 20260507082209 | -2 | 161 | 0.0 | 0.0 | 0.00 | 0.43 | 0.00 | 95 | 1020.0 |
| 20260507081922 | -2 | 161 | 0.0 | 0.0 | 0.00 | 0.43 | 0.00 | 94 | 1020.0 |
| 20260507081158 | -2 | 161 | 0.0 | 0.0 | 0.00 | 0.43 | 0.00 | 94 | 1020.1 |
| 20260507080652 | -2 | 161 | 0.0 | 3.2 | 0.00 | 0.43 | 0.00 | 94 | 1020.0 |
| 20260507080146 | -2 | 161 | 0.0 | 3.2 | 0.00 | 0.43 | 0.00 | 94 | 1020.1 |
| 20260507075639 | -2 | 161 | 0.0 | 0.0 | 0.00 | 0.43 | 0.00 | 95 | 1020.1 |
| 20260507075404 | -2 | 161 | 0.0 | 0.0 | 0.00 | 0.43 | 0.00 | 95 | 1020.3 |
| 20260507074627 | -2 | 161 | 0.0 | 0.0 | 0.00 | 0.43 | 0.00 | 94 | 1020.3 |
| 20260507074121 | -2 | 161 | 0.0 | 0.0 | 0.00 | 0.43 | 0.00 | 94 | 1020.5 |
| 20260507073616 | -2 | 161 | 0.0 | 0.0 | 0.00 | 0.43 | 0.00 | 95 | 1020.5 |
| 20260507073334 | -2 | 161 | 0.0 | 0.0 | 0.00 | 0.43 | 0.00 | 94 | 1020.6 |
| 20260507072820 | -2 | 161 | 0.0 | 0.0 | 0.00 | 0.43 | 0.00 | 95 | 1020.6 |
| 20260507072059 | -1 | 161 | 0.0 | 0.0 | 0.00 | 0.43 | 0.00 | 95 | 1020.5 |
| 20260507071552 | -1 | 161 | 0.0 | 0.0 | 0.00 | 0.43 | 0.00 | 95 | 1020.5 |
| 20260507071047 | -1 | 161 | 0.0 | 0.0 | 0.00 | 0.43 | 0.00 | 95 | 1020.5 |
| 20260507070539 | -1 | 161 | 0.0 | 0.0 | 0.00 | 0.43 | 0.00 | 95 | 1020.6 |
| 20260507070033 | -1 | 161 | 0.0 | 0.0 | 0.00 | 0.43 | 0.00 | 95 | 1020.7 |
| 20260507065529 | -2 | 161 | 0.0 | 0.0 | 0.00 | 0.43 | 0.00 | 95 | 1020.8 |
| 20260507065022 | -2 | 161 | 0.0 | 0.0 | 0.00 | 0.43 | 0.00 | 95 | 1020.8 |
| 20260507064515 | -2 | 161 | 0.0 | 0.0 | 0.00 | 0.43 | 0.00 | 94 | 1020.9 |
| 20260507064010 | -2 | 161 | 0.0 | 0.0 | 0.00 | 0.43 | 0.00 | 94 | 1020.8 |
| 20260507063510 | -2 | 161 | 0.0 | 0.0 | 0.00 | 0.43 | 0.00 | 94 | 1020.9 |
| 20260507063009 | -2 | 161 | 0.0 | 0.0 | 0.00 | 0.43 | 0.00 | 94 | 1020.8 |
| 20260507062508 | -2 | 161 | 0.0 | 0.0 | 0.00 | 0.43 | 0.00 | 94 | 1020.7 |
| 20260507062008 | -2 | 161 | 0.0 | 0.0 | 0.00 | 0.43 | 0.00 | 94 | 1020.7 |
| 20260507061509 | -2 | 161 | 0.0 | 0.0 | 0.00 | 0.43 | 0.00 | 94 | 1020.6 |
| 20260507061010 | -2 | 161 | 0.0 | 0.0 | 0.00 | 0.43 | 0.00 | 94 | 1020.7 |
| 20260507060508 | -2 | 161 | 0.0 | 0.0 | 0.00 | 0.43 | 0.00 | 94 | 1020.6 |
| 20260507060007 | -2 | 161 | 0.0 | 0.0 | 0.00 | 0.43 | 0.00 | 94 | 1020.7 |
| 20260507055506 | -1 | 161 | 0.0 | 0.0 | 0.00 | 0.43 | 0.43 | 94 | 1020.7 |
| 20260507055229 | -1 | 161 | 0.0 | 0.0 | 0.00 | 0.43 | 0.43 | 94 | 1020.7 |
| 20260507054506 | -1 | 161 | 0.0 | 0.0 | 0.00 | 0.43 | 0.43 | 94 | 1020.7 |
| 20260507054005 | -1 | 161 | 0.0 | 0.0 | 0.00 | 0.43 | 0.43 | 94 | 1020.6 |
| 20260507053506 | -1 | 161 | 0.0 | 0.0 | 0.00 | 0.43 | 0.43 | 94 | 1020.6 |
| 20260507053002 | -1 | 161 | 0.0 | 0.0 | 0.00 | 0.43 | 0.43 | 94 | 1020.5 |
| 20260507052501 | -1 | 161 | 0.0 | 0.0 | 0.00 | 0.43 | 0.43 | 94 | 1020.5 |
| 20260507052228 | -1 | 161 | 0.0 | 0.0 | 0.00 | 0.43 | 0.43 | 94 | 1020.5 |
| 20260507051500 | -1 | 161 | 0.0 | 0.0 | 0.00 | 0.43 | 0.43 | 94 | 1020.3 |
| 20260507051003 | -1 | 161 | 0.0 | 0.0 | 0.00 | 0.43 | 0.43 | 94 | 1020.5 |
| 20260507050501 | -1 | 161 | 0.0 | 0.0 | 0.00 | 0.43 | 0.43 | 94 | 1020.3 |
| 20260507050230 | -1 | 161 | 0.0 | 0.0 | 0.00 | 0.43 | 0.43 | 94 | 1020.2 |
| 20260507045502 | -1 | 161 | 0.0 | 0.0 | 0.00 | 0.43 | 0.43 | 94 | 1020.3 |
| 20260507045002 | -1 | 161 | 0.0 | 0.0 | 0.00 | 0.43 | 0.43 | 94 | 1020.2 |
| 20260507044455 | -1 | 161 | 0.0 | 0.0 | 0.00 | 0.43 | 0.43 | 94 | 1020.5 |
| 20260507043949 | -1 | 161 | 0.0 | 0.0 | 0.00 | 0.43 | 0.43 | 94 | 1020.5 |
| 20260507043443 | -1 | 161 | 0.0 | 0.0 | 0.00 | 0.43 | 0.43 | 94 | 1020.5 |
| 20260507042937 | -1 | 161 | 0.0 | 0.0 | 0.00 | 0.43 | 0.43 | 94 | 1020.3 |
| 20260507042431 | -1 | 161 | 0.0 | 0.0 | 0.00 | 0.43 | 0.43 | 93 | 1020.5 |
| 20260507041925 | -1 | 161 | 0.0 | 0.0 | 0.00 | 0.43 | 0.43 | 93 | 1020.3 |
| 20260507041419 | -1 | 161 | 0.0 | 0.0 | 0.00 | 0.43 | 0.43 | 93 | 1020.5 |
| 20260507040913 | -1 | 161 | 0.0 | 0.0 | 0.00 | 0.43 | 0.43 | 93 | 1020.3 |
| 20260507040407 | -1 | 161 | 0.0 | 0.0 | 0.00 | 0.43 | 0.43 | 93 | 1020.3 |
| 20260507035901 | -1 | 161 | 0.0 | 0.0 | 0.00 | 0.43 | 0.43 | 93 | 1020.2 |
| 20260507035355 | -1 | 161 | 0.0 | 0.0 | 0.00 | 0.43 | 0.43 | 93 | 1020.2 |
| 20260507035330 | -1 | 161 | 0.0 | 0.0 | 0.00 | 0.43 | 0.43 | 93 | 1020.2 |
| 20260507034603 | -1 | 161 | 0.0 | 0.0 | 0.00 | 0.43 | 0.43 | 93 | 1020.3 |
| 20260507033837 | -1 | 161 | 0.0 | 1.6 | 0.00 | 0.43 | 0.43 | 93 | 1020.3 |
| 20260507033556 | 0 | 161 | 0.0 | 3.2 | 0.00 | 0.43 | 0.43 | 92 | 1020.2 |
| 20260507032825 | 0 | 161 | 0.0 | 3.2 | 0.00 | 0.43 | 0.43 | 92 | 1020.2 |
| 20260507032320 | 0 | 161 | 0.0 | 3.2 | 0.00 | 0.43 | 0.43 | 92 | 1020.1 |
| 20260507031813 | 0 | 161 | 0.0 | 3.2 | 0.00 | 0.43 | 0.43 | 92 | 1020.2 |
| 20260507031540 | 0 | 161 | 0.0 | 0.0 | 0.00 | 0.43 | 0.43 | 92 | 1020.1 |
| 20260507030801 | 0 | 161 | 0.0 | 0.0 | 0.00 | 0.43 | 0.43 | 92 | 1020.0 |
| 20260507030256 | 0 | 161 | 0.0 | 0.0 | 0.00 | 0.43 | 0.43 | 91 | 1020.1 |
| 20260507025749 | 0 | 161 | 0.0 | 0.0 | 0.00 | 0.43 | 0.43 | 91 | 1020.0 |
| 20260507025244 | 0 | 161 | 0.0 | 0.0 | 0.00 | 0.43 | 0.43 | 90 | 1020.0 |
| 20260507024737 | 0 | 161 | 0.0 | 0.0 | 0.00 | 0.43 | 0.43 | 90 | 1019.9 |
| 20260507024456 | 0 | 161 | 0.0 | 0.0 | 0.00 | 0.43 | 0.43 | 89 | 1019.9 |
| 20260507023951 | 0 | 161 | 0.0 | 0.0 | 0.00 | 0.43 | 0.43 | 89 | 1019.9 |
| 20260507023220 | 0 | 161 | 0.0 | 0.0 | 0.00 | 0.43 | 0.43 | 89 | 1019.7 |
| 20260507022713 | 0 | 161 | 0.0 | 0.0 | 0.00 | 0.43 | 0.43 | 89 | 1019.7 |
| 20260507022207 | 1 | 161 | 0.0 | 0.0 | 0.00 | 0.43 | 0.43 | 88 | 1019.7 |
| 20260507021701 | 1 | 161 | 0.0 | 0.0 | 0.00 | 0.43 | 0.43 | 88 | 1019.6 |
| 20260507021157 | 1 | 161 | 0.0 | 1.6 | 0.00 | 0.46 | 0.43 | 87 | 1019.6 |
| 20260507020921 | 1 | 161 | 0.0 | 3.2 | 0.00 | 0.46 | 0.43 | 87 | 1019.6 |
| 20260507020408 | 1 | 161 | 0.0 | 3.2 | 0.00 | 0.46 | 0.43 | 87 | 1019.6 |
| 20260507015639 | 1 | 161 | 0.0 | 1.6 | 0.00 | 0.46 | 0.43 | 86 | 1019.6 |
| 20260507015131 | 1 | 161 | 0.0 | 1.6 | 0.00 | 0.46 | 0.43 | 86 | 1019.7 |